Cloud_Cover
100 54 4 0 0 0 0 0 0 0 7 18 30 9 61 83 100 95 96 100 99 99
35 41 44 4 0 0 0 0 0 0 5 84 5 17 26 100 100 100 100 100 98 88
60 80 77 69 87 27 18 46 51 44 100 100 100 100 100 100 100 100 100 99 100 100
73 66 69 78 99 100 92 100 100 76 100 100 100 100 90 100 86 100 99 100 100 100
100 99 100 100 100 100 100 100 100 100 100 100 100 86 100 100 100 100 100 100 100 100
98 100 100 100 100 100 100 92 100 100 84 100 100 99 75 56 82 100 100 100 100 100
100 100 100 100 100 100 100 100 100 100 97 99 100 100 100 100 100 100 100 100 100 100
100 100 100 100 100 100 100 100 100 100 100 100 100 100 100 100 100 100 100 100 100 100
100 100 93 99 100 100 100 100 100 100 86 94 100 100 100 100 100 100 100 100 100 100
79 98 100 100 94 100 100 100 100 100 99 100 100 100 100 100 100 100 100 100 100 100
100 98 91 96 100 100 96 42 100 100 100 100 100 100 100 100 100 100 100 100 100 100
100 100 23 5 5 5 20 95 100 100 100 100 92 100 100 100 100 100 100 100 100 100
85 73 100 73 100 42 9 15 12 5 8 28 55 99 83 92 99 100 100 100 100 100
5 5 19 5 5 24 47 34 69 79 18 38 5 5 24 47 5 5 5 15 6 20